FW9919 Weather Reports


time (UTC)temp
F
wind
direction
speed
knots
gust
knots
rain 1hr
in
rain 24hr
in
rain mn
in
humidity
%
barometer
mb
20260506084556 53 11 0.0 0.9 0.00 0.00 0.00 89 1019.6
20260506083055 53 0 0.0 1.7 0.00 0.00 0.00 89 1019.5
20260506081605 53 11 0.9 2.6 0.00 0.00 0.00 88 1019.4
20260506073053 54 11 0.0 1.7 0.00 0.00 0.00 87 1019.3
20260506071555 55 11 0.0 2.6 0.00 0.00 0.00 87 1019.2
20260506061552 57 0 0.0 2.6 0.00 0.00 0.00 85 1018.8
20260506044555 57 321 0.0 3.5 0.00 0.00 0.00 84 1018.6
20260506043055 57 0 0.0 3.5 0.00 0.00 0.00 84 1018.4
20260506041552 57 355 1.7 4.3 0.00 0.00 0.00 84 1018.3
20260506040056 57 342 0.0 2.6 0.00 0.00 0.00 84 1018.1
20260506034613 57 342 0.9 3.5 0.00 0.00 0.00 84 1017.9
20260506033052 57 302 0.9 3.5 0.00 0.00 0.00 84 1017.7
20260506031556 57 309 0.9 3.5 0.00 0.00 0.00 84 1017.5
20260506030056 58 293 0.0 3.5 0.00 0.00 0.00 83 1017.5
20260506024558 58 306 1.7 6.1 0.00 0.00 0.00 83 1017.4
20260506023100 58 20 0.0 7.0 0.00 0.00 0.00 83 1017.6
20260506021554 58 316 2.6 7.8 0.00 0.00 0.00 81 1017.3
20260506020052 58 321 0.9 8.7 0.00 0.00 0.00 81 1017.2
20260506014552 58 308 3.5 7.8 0.00 0.00 0.00 80 1017.0
20260506013108 58 260 2.6 6.1 0.00 0.00 0.00 79 1016.9
20260506011557 58 0 1.7 9.6 0.00 0.00 0.00 78 1017.0
20260506010118 58 294 3.5 9.6 0.00 0.00 0.00 78 1017.0
20260506004551 58 280 5.2 8.7 0.00 0.00 0.00 78 1017.0
20260506003101 59 284 7.0 10.4 0.00 0.00 0.00 77 1017.0
20260506001601 59 271 5.2 11.3 0.00 0.00 0.00 77 1016.9
20260506000054 59 264 6.1 13.0 0.00 0.00 0.00 76 1016.8
20260505234552 59 270 5.2 10.4 0.00 0.00 0.00 78 1016.7
20260505233103 58 229 6.1 10.4 0.00 0.00 0.00 78 1016.7
20260505231556 58 221 7.8 11.3 0.00 0.00 0.00 78 1016.6
20260505230057 58 205 6.1 8.7 0.00 0.00 0.00 79 1016.8
20260505224552 58 267 5.2 10.4 0.00 0.00 0.00 81 1016.9
20260505223056 57 231 7.0 10.4 0.00 0.00 0.00 81 1017.0
20260505221551 57 219 6.1 8.7 0.00 0.00 0.00 82 1017.2
20260505220055 57 239 5.2 8.7 0.00 0.00 0.00 81 1017.2
20260505214605 57 217 5.2 11.3 0.00 0.00 0.00 83 1017.3
20260505213052 57 217 6.1 10.4 0.00 0.00 0.00 82 1017.5
20260505211550 57 249 7.0 10.4 0.00 0.00 0.00 81 1017.5
20260505210051 57 209 5.2 9.6 0.00 0.00 0.00 81 1017.3
20260505204550 57 246 5.2 9.6 0.00 0.00 0.00 82 1017.4
20260505203050 57 229 5.2 8.7 0.00 0.00 0.00 81 1017.4
20260505201555 57 219 7.0 9.6 0.00 0.00 0.00 81 1017.6
20260505200052 57 232 5.2 8.7 0.00 0.00 0.00 79 1017.6
20260505194556 57 254 5.2 9.6 0.00 0.00 0.00 80 1017.6
20260505193054 57 263 3.5 8.7 0.00 0.00 0.00 80 1017.6
20260505191605 57 232 2.6 7.8 0.00 0.00 0.00 82 1017.7
20260505184558 57 225 2.6 7.0 0.00 0.00 0.00 81 1017.7
20260505183114 57 292 5.2 8.7 0.00 0.00 0.00 79 1017.7
20260505181553 57 255 5.2 8.7 0.00 0.00 0.00 81 1017.4
20260505180056 56 223 3.5 5.2 0.00 0.00 0.00 81 1017.2
20260505174556 56 252 2.6 7.0 0.00 0.00 0.00 81 1017.2
20260505173101 57 246 0.9 3.5 0.00 0.00 0.00 81 1017.1
20260505171601 56 281 2.6 6.1 0.00 0.00 0.00 82 1017.1
20260505170058 56 0 2.6 5.2 0.00 0.00 0.00 83 1017.0
20260505164552 56 261 1.7 3.5 0.00 0.00 0.00 84 1016.7
20260505163051 56 318 0.9 7.0 0.00 0.00 0.00 84 1016.7
20260505161610 56 259 3.5 6.1 0.00 0.00 0.00 84 1016.6
20260505153052 55 262 1.7 5.2 0.00 0.00 0.00 84 1016.4
20260505151604 54 0 0.0 2.6 0.00 0.00 0.00 84 1016.3
20260505124553 52 0 0.0 0.9 0.00 0.00 0.00 87 1015.7
20260505123055 52 0 0.0 1.7 0.00 0.00 0.00 87 1015.7
20260505121551 52 0 0.0 1.7 0.00 0.00 0.00 87 1015.7
20260505120109 53 0 0.0 1.7 0.00 0.00 0.00 87 1015.5
20260505114552 53 0 0.0 1.7 0.00 0.00 0.00 87 1015.4
20260505113055 53 72 0.9 1.7 0.00 0.00 0.00 87 1015.4
20260505111552 53 72 0.0 0.9 0.00 0.00 0.00 88 1015.5
20260505101555 53 61 1.7 6.1 0.00 0.01 0.00 88 1015.6
20260505100052 53 118 1.7 3.5 0.00 0.01 0.00 89 1015.7
20260505094554 53 0 0.0 1.7 0.00 0.01 0.00 89 1015.7
20260505093055 53 347 0.0 2.6 0.00 0.01 0.00 89 1015.9
20260505091552 53 347 0.9 2.6 0.00 0.01 0.00 89 1016.0
20260505090051 53 0 0.0 1.7 0.00 0.01 0.00 88 1016.0